Location: Terra Rouge Observatory
(46.0000°N, 62.7500°W)
Time: 04:57:42
(UTC-04:00)

NOSS 3-1 (A) - Visible Passes

Search period start: 27 February 2017 00:00
Search period end: 09 March 2017 00:00
Orbit: 836 x 1376 km, 63.4° (Epoch: 24 February)

Date Brightness Start Highest point End Pass type
(mag) Time Alt. Az. Time Alt. Az. Time Alt. Az.
27 Feb 4.0 19:45:21 10° NW 19:52:46 66° NE 19:56:37 34° ESE visible
27 Feb 5.1 21:36:41 10° NW 21:43:33 36° WSW 21:44:06 36° WSW visible
28 Feb 4.3 19:00:41 10° NNW 19:07:48 49° NE 19:14:01 17° ESE visible
28 Feb 4.6 20:51:39 10° NW 20:59:01 53° WSW 21:01:31 40° SSW visible
28 Feb 6.4 22:46:54 10° W 22:48:40 11° WSW 22:49:01 11° WSW visible
01 Mar 4.6 18:16:01 10° NNW 18:22:42 38° NE 18:30:07 10° E visible
01 Mar 4.1 20:06:47 10° NW 20:14:20 75° SW 20:19:04 29° SSE visible
01 Mar 6.0 21:59:25 10° WNW 22:04:27 19° WSW 22:06:34 17° SW visible
02 Mar 4.0 19:22:02 10° NW 19:29:33 80° NE 19:36:45 15° SE visible
02 Mar 5.5 21:13:43 10° WNW 21:20:06 29° WSW 21:24:16 19° SSW visible
03 Mar 4.2 18:37:21 10° NW 18:44:39 59° NE 18:52:48 10° SE visible
03 Mar 5.0 20:28:31 10° NW 20:35:36 42° WSW 20:42:09 14° S visible
04 Mar 4.5 19:43:33 10° NW 19:51:01 61° WSW 19:59:12 10° SSE visible
04 Mar 6.4 21:37:18 10° WNW 21:40:51 14° WSW 21:44:31 10° SW visible
05 Mar 4.1 18:58:45 10° NW 19:06:19 85° SW 19:14:40 10° SSE visible
05 Mar 6.0 20:50:56 10° WNW 20:56:35 22° WSW 21:02:33 10° SSW visible
06 Mar 5.5 20:05:28 10° NW 20:12:11 33° WSW 20:19:23 10° S visible
07 Mar 5.0 19:20:23 10° NW 19:27:39 49° WSW 19:35:36 10° S visible
08 Mar 4.5 18:35:29 10° NW 18:43:01 70° WSW 18:51:19 10° SSE visible
08 Mar 6.5 20:28:26 10° WNW 20:33:02 17° WSW 20:37:48 10° SW visible
